CZ-6A DEB, 54437

Orbit data source: Space-Track

CZ-6A DEB, 54437 is space debris in SSO originally from a launch on Fri, 11 Nov 2022 UTC launched from the Taiyaun Space Center, China (TSC). Debris objects in space refer to the collection of defunct objects orbiting the Earth. Examples of debris include non-operational satellites, rocket bodies, and fragments generated from explosions, collisions, or faulty payload assembly.

Loading next visibility...
Identifier
54437, 2022-151FM
Orbit
SSO
Country
Flag of CNCN / PRC
Related business
Manufacturer
SAST
Mission
Spacecraft
Bus & Motor
Unknown
Mass
Unknown
Launch date (UTC)
2022-11-11 (4 years ago)
Launch vehicle
Unknown
Launch site
Taiyaun Space Center, China (TSC)
Object type
Payload
Rocket body
Debris
Shape & HBR
Unknown shape, 0.1 m
Radar Cross Section
Small (<0.1 m²)

Expand to show TLE details & history
Last TLE update: 18 hours ago

TLE from 18 hours ago
0 CZ-6A DEB
1 54437U 22151FM  26207.43087438  .00007866  00000-0  14438-2 0  9997
2 54437  98.6225 271.9349 0090543 168.0241 192.3142 14.63358811195697
Epoch: 2026-07-26T10:20Z
TLE epoch observation values (Epoch: 2026-07-26T10:20:27.546Z)
Latitude
-0.00002°
Longitude
172.69122°
Altitude
747.822 km
Speed
7.448 km/s
True Right ascension
18h 07m 44s
True Declination
0° 00' 00"
Sunlit
Object was in full shadow at epoch
Visualization orbit readout
Latitude
Unknown
Longitude
Unknown
Altitude
Unknown
Speed
Unknown
Apparent Right ascension
Unknown
Apparent Declination
Unknown
Sunlit
N/A
Visualization observer readout
Local Sidereal Time
17:44:02
Azimuth
Unknown
Elevation
Unknown
Doppler factor
Unknown
Orbital elements
Apogee altitude
743.347 km
Perigee altitude
615.544 km
Semi-major axis
7,057.583 km
Eccentricity
0.00905
Inclination
98.6225°
RAAN
271.9349°
Arg. of periapsis
168.0241°
True anomaly
192.09534°
Mean anomaly
192.3142°
Eccentric anomaly
192.20453°
Mean motion
3.66066 °/min
Orbital period
98.34 mins
BSTAR
0.0014438
Loading maneuver chart data...
Computing Atmospheric mass density...
Loading historical data...
Loading historical data...
Loading historical data...
Loading historical data...
Loading historical data...
Loading historical data...
Loading historical data...

Documentation

Showing up to 5 results
|